RWASAT-1

Last updated on Wed Apr 27 2022 00:02:05 GMT+0000 (Coordinated Universal Time)

1 44790U 98067QV 22115.84795139 .00214845 37608-4 11951-3 0 9993 2 44790 51.6043 163.7661 0000617 310.3437 33.5205 16.18894631138535

Satellite not in orbit

RWASAT-1